AUA217N LOWW-EDDF

Flight info

Callsign AUA217N
Flight time N/A
Altitude 34000
Route LUGEM DCT SUBEN T161 DEBHI DEBHI1C
Aircraft A20N/M-SDE2E3FGHIRWXY/LB1

Departure

Time 2026-04-26 19:14
Airport Vienna International Airport (LOWW)

Arrival

Time N/A
Airport Frankfurt Main Airport (EDDF)
Time Latitude Longitude Altitude Speed Heading
2026-04-26 18:24 48.11657 16.56958 606 ft 0 kts 26°
2026-04-26 19:03 48.11645 16.56949 606 ft 2 kts 25°
2026-04-26 19:03 48.11631 16.56940 606 ft 2 kts 26°
2026-04-26 19:03 48.11618 16.56930 606 ft 2 kts 25°
2026-04-26 19:03 48.11606 16.56919 606 ft 2 kts 50°
2026-04-26 19:04 48.11598 16.56900 606 ft 2 kts 72°
2026-04-26 19:04 48.11595 16.56878 606 ft 2 kts 96°
2026-04-26 19:04 48.11599 16.56856 606 ft 2 kts 119°
2026-04-26 19:04 48.11602 16.56849 606 ft 0 kts 119°
2026-04-26 19:10 48.11598 16.56861 606 ft 6 kts 119°
2026-04-26 19:10 48.11572 16.56937 606 ft 9 kts 116°
2026-04-26 19:10 48.11538 16.57043 606 ft 12 kts 115°
2026-04-26 19:10 48.11500 16.57163 606 ft 13 kts 116°
2026-04-26 19:11 48.11457 16.57300 603 ft 13 kts 116°
2026-04-26 19:11 48.11406 16.57386 602 ft 9 kts 174°
2026-04-26 19:11 48.11349 16.57358 602 ft 8 kts 206°
2026-04-26 19:11 48.11293 16.57316 603 ft 9 kts 206°
2026-04-26 19:12 48.11230 16.57283 604 ft 10 kts 172°
2026-04-26 19:12 48.11178 16.57369 602 ft 13 kts 116°
2026-04-26 19:12 48.11141 16.57484 600 ft 10 kts 116°
2026-04-26 19:12 48.11089 16.57535 599 ft 10 kts 208°
2026-04-26 19:13 48.11020 16.57485 600 ft 11 kts 205°
2026-04-26 19:13 48.10964 16.57401 602 ft 12 kts 272°
2026-04-26 19:13 48.11038 16.57153 605 ft 59 kts 297°
2026-04-26 19:13 48.11344 16.56223 591 ft 138 kts 296°
2026-04-26 19:14 48.11828 16.54719 903 ft 172 kts 298°
2026-04-26 19:14 48.12190 16.53080 1817 ft 172 kts 271°
2026-04-26 19:14 48.11710 16.51491 2656 ft 178 kts 226°
2026-04-26 19:14 48.11058 16.50702 3062 ft 188 kts 216°
2026-04-26 19:15 48.09542 16.49201 3841 ft 210 kts 216°
2026-04-26 19:15 48.08297 16.47854 4393 ft 231 kts 220°
2026-04-26 19:15 48.07043 16.46350 5268 ft 237 kts 223°
2026-04-26 19:15 48.05761 16.44724 6002 ft 252 kts 225°
2026-04-26 19:16 48.04414 16.42967 6709 ft 267 kts 227°
2026-04-26 19:16 48.03284 16.40831 7607 ft 264 kts 253°
2026-04-26 19:16 48.03121 16.38211 8585 ft 258 kts 283°
2026-04-26 19:16 48.03582 16.35638 9556 ft 260 kts 287°
2026-04-26 19:17 48.04032 16.33045 10452 ft 264 kts 285°
2026-04-26 19:17 48.04477 16.30320 11033 ft 280 kts 285°
2026-04-26 19:17 48.04931 16.27425 11566 ft 296 kts 284°
2026-04-26 19:17 48.05389 16.24405 12329 ft 303 kts 284°
2026-04-26 19:18 48.05848 16.21311 13158 ft 307 kts 284°
2026-04-26 19:18 48.06303 16.18212 13956 ft 312 kts 284°
2026-04-26 19:18 48.06765 16.15050 14745 ft 317 kts 284°
2026-04-26 19:18 48.07231 16.11838 15514 ft 321 kts 284°
2026-04-26 19:19 48.07703 16.08568 16316 ft 325 kts 284°
2026-04-26 19:19 48.08176 16.05276 17062 ft 329 kts 284°
2026-04-26 19:19 48.08655 16.01939 17805 ft 333 kts 284°
2026-04-26 19:19 48.09142 15.98538 18524 ft 337 kts 283°
2026-04-26 19:20 48.09634 15.95098 19215 ft 341 kts 283°
2026-04-26 19:20 48.09959 15.92823 19681 ft 343 kts 283°
2026-04-26 19:20 48.10617 15.88178 20633 ft 346 kts 283°
2026-04-26 19:20 48.11116 15.84657 21333 ft 348 kts 283°
2026-04-26 19:21 48.11619 15.81092 22008 ft 351 kts 282°
2026-04-26 19:21 48.12117 15.77546 22661 ft 354 kts 282°
2026-04-26 19:21 48.12627 15.73919 23316 ft 357 kts 282°
2026-04-26 19:21 48.13131 15.70319 23951 ft 360 kts 282°
2026-04-26 19:22 48.13642 15.66657 24575 ft 363 kts 282°
2026-04-26 19:22 48.14156 15.62962 25179 ft 366 kts 282°
2026-04-26 19:22 48.14677 15.59199 25793 ft 369 kts 282°
2026-04-26 19:22 48.15191 15.55490 26366 ft 371 kts 282°
2026-04-26 19:23 48.15717 15.51688 26925 ft 374 kts 282°
2026-04-26 19:23 48.16244 15.47865 27465 ft 377 kts 282°
2026-04-26 19:23 48.16767 15.44065 27987 ft 379 kts 282°
2026-04-26 19:23 48.17301 15.40175 28481 ft 382 kts 282°
2026-04-26 19:24 48.17836 15.36271 28965 ft 384 kts 282°
2026-04-26 19:24 48.18365 15.32401 29415 ft 386 kts 282°
2026-04-26 19:24 48.19443 15.24484 30258 ft 391 kts 281°
2026-04-26 19:25 48.19984 15.20500 30659 ft 393 kts 281°
2026-04-26 19:25 48.20346 15.17825 30906 ft 394 kts 281°
2026-04-26 19:25 48.21069 15.12467 31474 ft 395 kts 281°
2026-04-26 19:25 48.21604 15.08487 32006 ft 392 kts 281°
2026-04-26 19:26 48.22139 15.04501 32508 ft 390 kts 281°
2026-04-26 19:26 48.22674 15.00491 32933 ft 390 kts 281°
2026-04-26 19:26 48.23198 14.96553 33268 ft 392 kts 281°
2026-04-26 19:26 48.23734 14.92522 33580 ft 393 kts 281°
2026-04-26 19:27 48.24260 14.88537 33894 ft 395 kts 281°
2026-04-26 19:27 48.24792 14.84513 34195 ft 396 kts 281°
2026-04-26 19:27 48.25853 14.76448 34235 ft 396 kts 281°
2026-04-26 19:28 48.26913 14.68339 34234 ft 397 kts 281°
2026-04-26 19:28 48.27964 14.60258 34234 ft 397 kts 281°
2026-04-26 19:29 48.29011 14.52162 34233 ft 398 kts 281°
2026-04-26 19:29 48.30055 14.44029 34232 ft 398 kts 281°
2026-04-26 19:30 48.31097 14.35870 34227 ft 398 kts 281°
2026-04-26 19:30 48.31959 14.29086 34231 ft 398 kts 280°
2026-04-26 19:31 48.33158 14.19598 34234 ft 398 kts 280°
2026-04-26 19:31 48.34177 14.11481 34231 ft 398 kts 280°
2026-04-26 19:32 48.35194 14.03324 34229 ft 398 kts 280°
2026-04-26 19:32 48.36203 13.95192 34227 ft 398 kts 280°
2026-04-26 19:33 48.37209 13.87023 34228 ft 399 kts 280°
2026-04-26 19:33 48.38215 13.78813 34221 ft 399 kts 280°
2026-04-26 19:34 48.39208 13.70652 34221 ft 400 kts 280°
2026-04-26 19:34 48.40206 13.62403 34221 ft 401 kts 280°
2026-04-26 19:35 48.41190 13.54228 34217 ft 401 kts 280°
2026-04-26 19:35 48.42172 13.45994 34216 ft 401 kts 280°
2026-04-26 19:36 48.43015 13.39121 34216 ft 402 kts 282°
2026-04-26 19:36 48.44738 13.29710 34213 ft 402 kts 288°
2026-04-26 19:37 48.46742 13.21854 34213 ft 402 kts 290°
2026-04-26 19:37 48.48808 13.14035 34210 ft 403 kts 291°
2026-04-26 19:38 48.51258 13.06490 34208 ft 403 kts 296°
2026-04-26 19:38 48.53863 12.98987 34206 ft 404 kts 296°
2026-04-26 19:39 48.56444 12.91484 34209 ft 404 kts 296°
2026-04-26 19:39 48.59010 12.83974 34210 ft 404 kts 296°
2026-04-26 19:40 48.61574 12.76431 34211 ft 405 kts 296°
2026-04-26 19:40 48.64132 12.68879 34215 ft 406 kts 296°
2026-04-26 19:41 48.66674 12.61345 34214 ft 405 kts 296°
2026-04-26 19:41 48.68800 12.55033 34216 ft 405 kts 296°
2026-04-26 19:42 48.71771 12.46183 34214 ft 405 kts 296°
2026-04-26 19:42 48.74310 12.38595 34213 ft 406 kts 296°
2026-04-26 19:43 48.76844 12.30997 34211 ft 406 kts 296°
2026-04-26 19:43 48.79376 12.23385 34215 ft 406 kts 296°
2026-04-26 19:44 48.81907 12.15753 34219 ft 407 kts 296°
2026-04-26 19:44 48.84446 12.08073 34219 ft 407 kts 296°
2026-04-26 19:45 48.86971 12.00413 34217 ft 408 kts 296°
2026-04-26 19:45 48.89496 11.92724 34223 ft 407 kts 296°
2026-04-26 19:46 48.92007 11.85058 34224 ft 407 kts 296°
2026-04-26 19:46 48.94523 11.77359 34224 ft 407 kts 296°
2026-04-26 19:47 48.96607 11.70963 34224 ft 408 kts 296°
2026-04-26 19:47 48.99529 11.61964 34228 ft 408 kts 296°
2026-04-26 19:48 49.02027 11.54244 34181 ft 409 kts 296°
2026-04-26 19:48 49.03268 11.50400 33919 ft 407 kts 296°
2026-04-26 19:48 49.04511 11.46545 33658 ft 405 kts 296°
2026-04-26 19:49 49.05747 11.42704 33392 ft 403 kts 296°
2026-04-26 19:49 49.06972 11.38893 33128 ft 401 kts 296°
2026-04-26 19:49 49.08189 11.35103 32863 ft 400 kts 296°
2026-04-26 19:49 49.09410 11.31292 32603 ft 401 kts 296°
2026-04-26 19:50 49.10631 11.27475 32342 ft 402 kts 296°
2026-04-26 19:50 49.11844 11.23674 32088 ft 403 kts 296°
2026-04-26 19:50 49.13075 11.19817 31814 ft 404 kts 296°
2026-04-26 19:50 49.14297 11.15982 31553 ft 405 kts 296°
2026-04-26 19:51 49.15528 11.12110 31286 ft 405 kts 296°
2026-04-26 19:51 49.16750 11.08262 31032 ft 406 kts 296°
2026-04-26 19:51 49.17982 11.04377 30769 ft 406 kts 296°
2026-04-26 19:51 49.19194 11.00548 30507 ft 404 kts 296°
2026-04-26 19:52 49.20409 10.96706 30182 ft 403 kts 296°
2026-04-26 19:52 49.21626 10.92849 29883 ft 401 kts 296°
2026-04-26 19:52 49.22821 10.89053 29527 ft 399 kts 296°
2026-04-26 19:52 49.24014 10.85264 29098 ft 396 kts 296°
2026-04-26 19:53 49.25211 10.81465 28654 ft 392 kts 298°
2026-04-26 19:53 49.26534 10.77854 28391 ft 391 kts 301°
2026-04-26 19:53 49.27932 10.74317 28124 ft 389 kts 302°
2026-04-26 19:53 49.29326 10.70815 27860 ft 388 kts 302°
2026-04-26 19:54 49.30724 10.67275 27596 ft 386 kts 302°
2026-04-26 19:54 49.32095 10.63778 27327 ft 384 kts 302°
2026-04-26 19:54 49.33462 10.60271 27061 ft 383 kts 302°
2026-04-26 19:54 49.34799 10.56827 26802 ft 381 kts 302°
2026-04-26 19:55 49.36154 10.53325 26535 ft 380 kts 302°
2026-04-26 19:55 49.37496 10.49847 26271 ft 378 kts 302°
2026-04-26 19:55 49.38824 10.46398 26007 ft 377 kts 302°
2026-04-26 19:55 49.40151 10.42948 25743 ft 376 kts 302°
2026-04-26 19:56 49.41473 10.39503 25479 ft 375 kts 302°
2026-04-26 19:56 49.42781 10.36089 25217 ft 373 kts 302°
2026-04-26 19:56 49.44083 10.32686 24954 ft 372 kts 301°
2026-04-26 19:56 49.45389 10.29269 24689 ft 370 kts 301°
2026-04-26 19:57 49.46687 10.25870 24426 ft 369 kts 301°
2026-04-26 19:57 49.47973 10.22496 24165 ft 368 kts 301°
2026-04-26 19:57 49.49256 10.19125 23903 ft 366 kts 301°
2026-04-26 19:57 49.50541 10.15746 23640 ft 365 kts 301°
2026-04-26 19:58 49.51821 10.12376 23380 ft 364 kts 301°
2026-04-26 19:58 49.53083 10.09048 23129 ft 363 kts 301°
2026-04-26 19:58 49.54348 10.05706 22870 ft 362 kts 301°
2026-04-26 19:58 49.55618 10.02351 22614 ft 361 kts 301°
2026-04-26 19:59 49.56867 9.99044 22358 ft 359 kts 301°
2026-04-26 19:59 49.58124 9.95713 22108 ft 358 kts 301°
2026-04-26 19:59 49.59359 9.92434 21850 ft 356 kts 301°
2026-04-26 19:59 49.60586 9.89175 21604 ft 355 kts 301°
2026-04-26 20:00 49.61824 9.85882 21345 ft 354 kts 301°
2026-04-26 20:00 49.63059 9.82594 21091 ft 352 kts 301°
2026-04-26 20:00 49.64278 9.79340 20840 ft 351 kts 301°
2026-04-26 20:00 49.65483 9.76121 20596 ft 350 kts 301°
2026-04-26 20:01 49.66694 9.72886 20348 ft 349 kts 301°
2026-04-26 20:01 49.67910 9.69627 20088 ft 347 kts 301°
2026-04-26 20:01 49.69100 9.66440 19839 ft 346 kts 301°
2026-04-26 20:01 49.70290 9.63245 19519 ft 339 kts 301°
2026-04-26 20:02 49.71458 9.60107 19159 ft 333 kts 301°
2026-04-26 20:02 49.72596 9.57048 18830 ft 327 kts 301°
2026-04-26 20:02 49.73710 9.54045 18544 ft 320 kts 300°
2026-04-26 20:02 49.74435 9.52091 18334 ft 316 kts 300°
2026-04-26 20:03 49.75884 9.48178 17796 ft 313 kts 300°
2026-04-26 20:03 49.76949 9.45300 17349 ft 312 kts 300°
2026-04-26 20:03 49.78011 9.42425 16901 ft 310 kts 300°
2026-04-26 20:03 49.79085 9.39513 16452 ft 309 kts 301°
2026-04-26 20:04 49.80135 9.36665 16012 ft 308 kts 301°
2026-04-26 20:04 49.81189 9.33803 15607 ft 306 kts 300°
2026-04-26 20:04 49.82243 9.30938 15203 ft 303 kts 300°
2026-04-26 20:04 49.83280 9.28117 14812 ft 301 kts 300°
2026-04-26 20:05 49.84307 9.25318 14415 ft 299 kts 300°
2026-04-26 20:05 49.85314 9.22574 14022 ft 297 kts 300°
2026-04-26 20:05 49.86333 9.19793 13627 ft 295 kts 300°
2026-04-26 20:05 49.87329 9.17072 13236 ft 293 kts 300°
2026-04-26 20:06 49.88329 9.14337 12840 ft 291 kts 300°
2026-04-26 20:06 49.89317 9.11630 12442 ft 289 kts 300°
2026-04-26 20:06 49.90296 9.08944 12049 ft 287 kts 300°
2026-04-26 20:06 49.91270 9.06234 11651 ft 286 kts 298°
2026-04-26 20:07 49.92096 9.03472 11315 ft 282 kts 293°
2026-04-26 20:07 49.92742 9.00638 11264 ft 282 kts 289°
2026-04-26 20:07 49.93311 8.97714 11256 ft 283 kts 288°
2026-04-26 20:07 49.93867 8.94791 11252 ft 283 kts 288°
2026-04-26 20:08 49.94418 8.91883 11243 ft 282 kts 288°
2026-04-26 20:08 49.94971 8.88967 11245 ft 282 kts 288°